FW6802 Weather Reports


Display with metric or nautical units.
time (UTC)temp
F
wind
direction
speed
MPH
gust
MPH
rain 1hr
in
rain 24hr
in
rain mn
in
humidity
%
barometer
mb
20210926042146 56 195 0.0 12.0 0.00 0.00 0.00 77 1018.8
20210926041646 56 195 0.0 12.0 0.00 0.00 0.00 77 1018.8
20210926041145 56 195 0.0 12.0 0.00 0.00 0.00 77 1018.8
20210926040644 56 195 0.0 12.0 0.00 0.00 0.00 77 1018.9
20210926040143 56 195 0.0 12.0 0.00 0.00 0.00 76 1018.9
20210926035642 56 195 0.0 12.0 0.00 0.00 0.12 76 1019.0
20210926035141 56 195 0.0 12.0 0.00 0.00 0.12 76 1018.7
20210926034641 56 195 0.0 12.0 0.00 0.00 0.12 75 1018.8
20210926034140 56 195 0.0 12.0 0.00 0.00 0.12 75 1018.3
20210926033640 57 195 0.0 12.0 0.00 0.00 0.12 74 1018.7
20210926033139 57 195 0.0 12.0 0.00 0.00 0.12 74 1018.4
20210926032638 57 195 0.0 12.0 0.00 0.00 0.12 74 1018.5
20210926032137 57 194 1.0 12.0 0.00 0.00 0.12 74 1018.5
20210926031636 57 202 1.0 12.0 0.00 0.00 0.12 74 1018.6
20210926031135 57 203 1.0 12.0 0.00 0.00 0.12 73 1018.7
20210926030635 57 203 1.0 12.0 0.00 0.00 0.12 73 1018.7
20210926030134 57 203 1.0 12.0 0.00 0.00 0.12 73 1018.8
20210926025633 57 205 1.0 12.0 0.00 0.00 0.12 72 1018.8
20210926025132 57 212 1.0 12.0 0.00 0.00 0.12 72 1018.7
20210926024632 57 212 0.0 12.0 0.00 0.00 0.12 71 1018.5
20210926024131 57 212 0.0 12.0 0.00 0.00 0.12 71 1018.6
20210926023630 57 212 1.0 12.0 0.00 0.00 0.12 70 1018.6
20210926023129 57 213 0.0 12.0 0.00 0.00 0.12 70 1018.2
20210926022628 57 216 1.0 12.0 0.00 0.00 0.12 70 1018.0
20210926022127 57 221 0.0 12.0 0.00 0.00 0.12 69 1018.5
20210926021626 58 221 0.0 12.0 0.00 0.00 0.12 69 1018.3
20210926021125 58 221 0.0 12.0 0.00 0.00 0.12 69 1018.1
20210926020624 58 221 0.0 12.0 0.00 0.00 0.12 68 1018.3
20210926020123 58 221 0.0 12.0 0.00 0.00 0.12 68 1018.5
20210926015622 58 221 0.0 12.0 0.00 0.00 0.12 68 1018.2
20210926015121 58 221 0.0 12.0 0.00 0.00 0.12 67 1018.0
20210926014621 59 221 0.0 12.0 0.00 0.00 0.12 67 1018.3
20210926014120 59 222 0.0 12.0 0.00 0.00 0.12 67 1017.9
20210926013619 59 222 1.0 12.0 0.00 0.00 0.12 66 1018.1
20210926013118 59 223 0.0 12.0 0.00 0.00 0.12 66 1018.2
20210926012617 59 223 0.0 12.0 0.00 0.00 0.12 65 1018.1
20210926012116 59 223 0.0 12.0 0.00 0.00 0.12 65 1018.0
20210926011616 59 223 1.0 12.0 0.00 0.00 0.12 65 1017.7
20210926011115 59 223 1.0 12.0 0.00 0.00 0.12 64 1018.0
20210926010614 60 223 0.0 12.0 0.00 0.00 0.12 64 1017.8
20210926010113 60 223 0.0 12.0 0.00 0.00 0.12 63 1017.8
20210926005612 60 223 0.0 12.0 0.00 0.00 0.12 63 1017.8
20210926005111 60 223 0.0 12.0 0.00 0.00 0.12 62 1018.0
20210926004611 60 223 0.0 12.0 0.00 0.00 0.12 61 1017.9
20210926004110 61 223 0.0 12.0 0.00 0.00 0.12 61 1017.9
20210926003609 61 224 1.0 12.0 0.00 0.00 0.12 60 1017.7
20210926003108 61 224 0.0 12.0 0.00 0.00 0.12 60 1017.7
20210926002607 61 224 0.0 12.0 0.00 0.00 0.12 59 1017.9
20210926002107 62 224 1.0 12.0 0.00 0.00 0.12 59 1017.9
20210926001607 62 224 0.0 12.0 0.00 0.00 0.12 58 1017.8
20210926001106 62 226 0.0 12.0 0.00 0.00 0.12 57 1017.9
20210926000606 63 226 0.0 12.0 0.00 0.00 0.12 56 1017.6
20210926000105 63 226 0.0 12.0 0.00 0.00 0.12 55 1017.5
20210925235604 64 226 1.0 12.0 0.00 0.00 0.12 54 1017.7
20210925235103 64 226 1.0 12.0 0.00 0.00 0.12 53 1017.5
20210925234602 64 226 0.0 12.0 0.00 0.00 0.12 52 1017.5
20210925234101 65 226 1.0 12.0 0.00 0.00 0.12 51 1017.4
20210925233601 65 226 0.0 12.0 0.00 0.00 0.12 50 1017.6
20210925233100 66 231 2.0 12.0 0.00 0.00 0.12 49 1017.6
20210925232559 66 248 1.0 12.0 0.00 0.00 0.12 48 1018.0
20210925232058 66 236 2.0 12.0 0.00 0.00 0.12 47 1017.6
20210925231557 67 247 2.0 12.0 0.00 0.00 0.12 46 1017.2
20210925231057 67 228 3.0 12.0 0.00 0.00 0.12 45 1017.3
20210925230556 68 235 2.0 12.0 0.00 0.00 0.12 45 1017.4
20210925230055 68 219 2.0 12.0 0.00 0.00 0.12 45 1017.5
20210925225554 68 244 2.0 12.0 0.00 0.00 0.12 43 1017.5
20210925225053 68 266 2.0 12.0 0.00 0.00 0.12 43 1017.4
20210925224552 68 254 3.0 12.0 0.00 0.00 0.12 43 1017.8
20210925224052 69 252 2.0 12.0 0.00 0.00 0.12 42 1017.6
20210925223551 69 242 5.0 12.0 0.00 0.00 0.12 41 1017.6
20210925223050 70 265 4.0 12.0 0.00 0.00 0.12 40 1017.7
20210925222549 70 265 4.0 12.0 0.00 0.00 0.12 40 1017.7
20210925222048 70 260 5.0 12.0 0.00 0.00 0.12 40 1017.7
20210925221547 70 267 6.0 12.0 0.00 0.00 0.12 39 1017.5
20210925221047 70 274 4.0 12.0 0.00 0.00 0.12 39 1017.4
20210925220546 71 297 5.0 12.0 0.00 0.00 0.12 39 1017.6
20210925220045 71 250 4.0 12.0 0.00 0.00 0.12 39 1017.4
20210925215544 71 272 4.0 12.0 0.00 0.00 0.12 39 1017.5
20210925215043 71 269 5.0 12.0 0.00 0.00 0.12 38 1017.6
20210925214543 71 240 4.0 12.0 0.00 0.00 0.12 38 1017.5
20210925214043 71 270 4.0 12.0 0.00 0.00 0.12 38 1017.7
20210925213542 71 287 4.0 12.0 0.00 0.00 0.12 38 1017.6
20210925213041 71 291 2.0 12.0 0.00 0.00 0.12 40 1017.8
20210925212540 70 269 3.0 12.0 0.00 0.00 0.12 41 1017.8
20210925212039 70 266 4.0 12.0 0.00 0.00 0.12 40 1017.8
20210925211538 69 274 3.0 12.0 0.00 0.00 0.12 40 1017.7
20210925211038 70 272 4.0 11.0 0.00 0.00 0.12 39 1017.7
20210925210538 71 256 4.0 11.0 0.00 0.00 0.12 38 1017.7
20210925210037 71 273 5.0 11.0 0.00 0.00 0.12 39 1018.0
20210925205536 71 264 3.0 11.0 0.00 0.00 0.12 38 1017.7
20210925205035 71 248 2.0 11.0 0.00 0.00 0.12 39 1017.5
20210925204535 71 219 5.0 12.0 0.00 0.00 0.12 39 1017.5
20210925204035 70 245 5.0 12.0 0.00 0.00 0.12 39 1017.6
20210925203535 70 249 4.0 12.0 0.00 0.00 0.12 41 1017.6
20210925203034 70 270 3.0 12.0 0.00 0.00 0.12 41 1017.9
20210925202533 69 280 4.0 12.0 0.00 0.00 0.12 41 1017.9
20210925202032 69 291 4.0 12.0 0.00 0.00 0.12 42 1017.8
20210925201532 69 259 3.0 12.0 0.00 0.00 0.12 42 1018.2
20210925201032 69 269 4.0 12.0 0.00 0.00 0.12 41 1018.1
20210925200531 68 281 2.0 12.0 0.00 0.00 0.12 43 1018.1
20210925200030 68 261 3.0 12.0 0.00 0.00 0.12 42 1018.2
20210925195529 68 243 5.0 12.0 0.00 0.00 0.12 43 1018.0
20210925195028 69 266 5.0 12.0 0.00 0.00 0.12 42 1018.3
20210925194527 69 257 4.0 12.0 0.00 0.00 0.12 41 1018.0
20210925194027 70 254 4.0 12.0 0.00 0.00 0.12 40 1018.2
20210925193526 70 252 5.0 12.0 0.00 0.00 0.12 40 1018.4
20210925193025 70 294 4.0 12.0 0.00 0.00 0.12 40 1018.5
20210925192524 69 271 4.0 12.0 0.00 0.00 0.12 40 1018.3
20210925192023 69 284 5.0 12.0 0.00 0.00 0.12 40 1018.5
20210925191522 69 277 3.0 12.0 0.00 0.00 0.12 41 1018.8
20210925191021 69 263 5.0 12.0 0.00 0.00 0.12 41 1018.6
20210925190520 69 286 8.0 12.0 0.00 0.00 0.12 41 1018.5
20210925190019 69 284 5.0 13.0 0.00 0.00 0.12 42 1018.3
20210925185518 69 284 4.0 13.0 0.00 0.00 0.12 42 1018.7
20210925185017 69 265 5.0 13.0 0.00 0.00 0.12 41 1019.0
20210925184517 69 305 7.0 13.0 0.00 0.00 0.12 40 1018.7
20210925184016 70 312 2.0 11.0 0.00 0.00 0.12 41 1018.7
20210925183515 70 280 6.0 13.0 0.00 0.00 0.12 41 1018.7
20210925183014 70 276 5.0 13.0 0.00 0.00 0.12 42 1018.8
20210925182513 69 284 4.0 11.0 0.00 0.00 0.12 43 1018.5
20210925182012 69 282 3.0 11.0 0.00 0.00 0.12 43 1018.6
20210925181512 68 274 5.0 13.0 0.00 0.00 0.12 44 1018.7
20210925181011 68 287 5.0 13.0 0.00 0.00 0.12 44 1018.8
20210925180510 68 298 7.0 11.0 0.00 0.00 0.12 44 1018.8
20210925180009 68 311 6.0 11.0 0.00 0.00 0.12 44 1018.9
20210925175508 67 284 5.0 11.0 0.00 0.00 0.12 44 1018.8
20210925175007 67 322 5.0 11.0 0.00 0.00 0.12 44 1018.7
20210925174507 67 315 3.0 12.0 0.00 0.00 0.12 48 1018.7
20210925174007 67 349 3.0 12.0 0.00 0.00 0.12 46 1018.7
20210925173506 67 318 7.0 13.0 0.00 0.00 0.12 46 1018.8
20210925173005 67 324 5.0 13.0 0.00 0.00 0.12 45 1018.5
20210925172504 67 320 6.0 11.0 0.00 0.00 0.12 45 1019.0
20210925172003 67 20 3.0 14.0 0.00 0.00 0.12 48 1018.5
20210925171502 67 28 4.0 14.0 0.00 0.00 0.12 47 1018.3
20210925171001 67 310 6.0 14.0 0.00 0.00 0.12 48 1019.1
20210925170501 67 17 3.0 11.0 0.00 0.00 0.12 47 1018.6
20210925170000 67 308 4.0 11.0 0.00 0.00 0.12 48 1018.9
20210925165459 66 322 2.0 14.0 0.00 0.00 0.12 49 1019.0
20210925164958 66 333 3.0 14.0 0.00 0.00 0.12 48 1018.7
20210925164457 66 275 4.0 11.0 0.00 0.00 0.12 50 1019.2
20210925163957 66 280 3.0 11.0 0.00 0.00 0.12 54 1019.1
20210925163457 66 308 5.0 11.0 0.00 0.00 0.12 52 1019.2
20210925162956 65 316 3.0 11.0 0.00 0.00 0.12 57 1019.1
20210925162455 65 322 3.0 11.0 0.00 0.00 0.12 59 1019.0
20210925161954 65 295 5.0 11.0 0.00 0.00 0.12 59 1019.1
20210925161453 65 308 4.0 11.0 0.00 0.00 0.12 59 1018.9
20210925160953 65 355 2.0 11.0 0.00 0.00 0.12 60 1018.8
20210925160452 65 292 6.0 11.0 0.00 0.00 0.12 58 1019.2
20210925155951 65 292 3.0 11.0 0.00 0.00 0.12 62 1018.7
20210925155451 64 305 2.0 11.0 0.00 0.00 0.12 65 1019.1
20210925154950 63 325 4.0 11.0 0.00 0.00 0.12 65 1018.8
20210925154449 63 313 5.0 11.0 0.00 0.00 0.12 64 1018.9
20210925153949 63 287 6.0 11.0 0.00 0.00 0.12 65 1018.9
20210925153449 63 304 4.0 11.0 0.00 0.00 0.12 67 1019.0
20210925152948 62 346 3.0 11.0 0.00 0.00 0.12 67 1018.8
20210925152447 62 304 3.0 11.0 0.00 0.00 0.12 70 1018.9
20210925151946 61 339 3.0 11.0 0.00 0.00 0.12 70 1018.7
20210925151445 61 286 3.0 11.0 0.00 0.00 0.12 71 1018.6
20210925150944 61 305 3.0 11.0 0.00 0.00 0.12 73 1018.9
20210925150443 60 316 1.0 11.0 0.00 0.00 0.12 75 1018.6
20210925145942 59 297 4.0 11.0 0.00 0.00 0.12 76 1018.7
20210925145441 59 300 4.0 11.0 0.00 0.00 0.12 76 1018.7
20210925144940 59 305 4.0 11.0 0.00 0.00 0.12 79 1018.6
20210925144439 58 305 6.0 11.0 0.00 0.00 0.12 79 1018.6
20210925143938 58 305 2.0 11.0 0.00 0.00 0.12 80 1018.5
20210925143438 58 304 4.0 11.0 0.00 0.00 0.12 81 1018.2
20210925142937 58 308 5.0 11.0 0.00 0.00 0.12 81 1018.0
20210925142437 58 295 4.0 11.0 0.00 0.00 0.12 83 1018.3
20210925141936 57 290 2.0 11.0 0.00 0.00 0.12 85 1018.1
20210925141435 57 355 2.0 11.0 0.00 0.00 0.12 86 1018.1
20210925140934 56 294 5.0 11.0 0.00 0.00 0.12 86 1018.1
20210925140434 56 329 1.0 11.0 0.00 0.00 0.12 87 1018.4
20210925135933 56 325 4.0 11.0 0.00 0.00 0.12 87 1018.1
20210925135432 56 315 5.0 11.0 0.00 0.00 0.12 87 1018.4
20210925134931 56 296 4.0 11.0 0.00 0.00 0.12 87 1018.1
20210925134430 56 307 4.0 12.0 0.00 0.00 0.12 87 1018.2
20210925133929 56 288 5.0 12.0 0.00 0.00 0.12 87 1018.0
20210925133429 56 330 2.0 12.0 0.00 0.00 0.12 87 1017.9
20210925132928 56 302 3.0 12.0 0.00 0.00 0.12 87 1017.7
20210925132427 56 304 3.0 12.0 0.00 0.00 0.12 86 1017.8
20210925131927 57 305 4.0 12.0 0.00 0.00 0.12 86 1017.8
20210925131426 57 303 4.0 12.0 0.00 0.00 0.12 89 1017.7
20210925130925 57 308 2.0 12.0 0.00 0.00 0.12 91 1017.5
20210925130425 57 318 3.0 12.0 0.00 0.00 0.12 91 1017.6
20210925125925 57 304 3.0 12.0 0.00 0.00 0.12 90 1017.7
20210925125424 57 294 3.0 12.0 0.00 0.00 0.12 90 1017.6
20210925124923 57 325 3.0 12.0 0.00 0.00 0.12 89 1018.0
20210925124422 57 317 6.0 12.0 0.00 0.00 0.12 89 1017.6
20210925123921 58 278 3.0 12.0 0.00 0.00 0.12 92 1017.7
20210925123421 58 272 2.0 12.0 0.00 0.00 0.12 92 1017.6
20210925122921 58 247 3.0 12.0 0.00 0.00 0.12 93 1017.6
20210925122420 58 223 3.0 12.0 0.00 0.00 0.12 93 1017.6
20210925121919 58 220 3.0 12.0 0.00 0.00 0.12 93 1017.5
20210925121418 58 239 3.0 12.0 0.00 0.00 0.12 93 1017.3
20210925120917 58 220 3.0 12.0 0.01 0.00 0.12 93 1017.3
20210925120417 58 228 2.0 12.0 0.01 0.00 0.12 93 1017.0
20210925115917 58 230 3.0 12.0 0.01 0.00 0.12 93 1017.4
20210925115416 58 222 4.0 12.0 0.01 0.00 0.12 93 1017.4
20210925114915 58 216 3.0 12.0 0.01 0.00 0.12 92 1017.1
20210925114414 58 214 2.0 12.0 0.02 0.00 0.12 92 1017.0
20210925113913 58 221 2.0 12.0 0.02 0.00 0.12 92 1017.2
20210925113413 58 205 2.0 12.0 0.03 0.00 0.12 92 1016.9
20210925112913 58 216 3.0 12.0 0.04 0.00 0.12 92 1016.6
20210925112412 58 214 1.0 12.0 0.05 0.00 0.12 92 1016.5
20210925111911 58 176 2.0 12.0 0.05 0.00 0.12 92 1016.2
20210925111410 58 203 2.0 12.0 0.05 0.00 0.12 91 1016.6
20210925110909 58 197 3.0 12.0 0.04 0.00 0.11 91 1017.3
20210925110409 58 200 2.0 12.0 0.06 0.00 0.11 91 1016.5
20210925105909 58 211 3.0 12.0 0.09 0.00 0.11 91 1016.8
20210925105408 58 195 2.0 12.0 0.09 0.00 0.11 91 1016.5
20210925104907 59 152 3.0 12.0 0.10 0.00 0.11 91 1016.2
20210925104406 59 162 2.0 12.0 0.11 0.00 0.11 90 1016.2
20210925103905 59 210 2.0 12.0 0.10 0.00 0.10 91 1016.6
20210925103405 59 231 1.0 12.0 0.09 0.00 0.09 90 1017.0
20210925102904 59 249 1.0 12.0 0.07 0.00 0.07 90 1017.0
20210925102404 59 223 2.0 12.0 0.06 0.00 0.06 90 1017.0
20210925101903 59 229 2.0 12.0 0.06 0.00 0.06 89 1016.8
20210925101402 59 236 2.0 12.0 0.06 0.00 0.06 89 1017.2
20210925100901 59 227 1.0 12.0 0.06 0.00 0.06 88 1017.3
20210925100401 59 233 3.0 12.0 0.05 0.00 0.05 87 1017.4
20210925095901 59 250 2.0 12.0 0.03 0.00 0.03 86 1017.4
20210925095400 59 247 3.0 12.0 0.02 0.00 0.02 85 1017.5
20210925094859 59 222 3.0 12.0 0.01 0.00 0.01 84 1017.4
20210925094358 59 234 3.0 12.0 0.00 0.00 0.00 83 1017.0
20210925093857 59 239 1.0 12.0 0.00 0.00 0.00 82 1016.8
20210925093357 59 213 2.0 12.0 0.00 0.00 0.00 81 1016.6
20210925092858 59 221 2.0 12.0 0.00 0.00 0.00 80 1016.4
20210925092357 59 221 2.0 12.0 0.00 0.00 0.00 80 1016.2
20210925091856 59 212 2.0 12.0 0.00 0.00 0.00 80 1016.2
20210925091355 59 223 3.0 12.0 0.00 0.00 0.00 79 1016.3
20210925090854 59 211 2.0 12.0 0.00 0.00 0.00 78 1016.2
20210925090353 59 217 2.0 12.0 0.00 0.00 0.00 78 1016.0
20210925085852 59 224 2.0 12.0 0.00 0.00 0.00 78 1016.1
20210925085351 59 198 2.0 12.0 0.00 0.00 0.00 77 1015.8
20210925084851 59 210 4.0 12.0 0.00 0.00 0.00 77 1016.0
20210925084351 59 212 3.0 12.0 0.00 0.00 0.00 77 1015.6
20210925083850 59 215 3.0 12.0 0.00 0.00 0.00 77 1015.6
20210925083350 59 199 3.0 12.0 0.00 0.00 0.00 76 1015.7
20210925082849 60 207 1.0 12.0 0.00 0.00 0.00 76 1015.5
20210925082349 60 206 3.0 12.0 0.00 0.00 0.00 76 1015.7
20210925081849 60 222 3.0 12.0 0.00 0.00 0.00 75 1015.6
20210925081349 60 204 3.0 12.0 0.00 0.00 0.00 75 1015.6
20210925080847 60 191 4.0 12.0 0.00 0.00 0.00 74 1015.2
20210925080347 60 198 4.0 12.0 0.00 0.00 0.00 74 1015.4
20210925075846 60 200 4.0 12.0 0.00 0.00 0.00 74 1015.6
20210925075345 60 195 4.0 12.0 0.00 0.00 0.00 73 1015.4
20210925074845 60 194 5.0 12.0 0.00 0.00 0.00 73 1015.4
20210925073824 60 197 5.0 12.0 0.00 0.00 0.00 73 1015.5
20210925073324 60 178 5.0 12.0 0.00 0.00 0.00 73 1015.4
20210925072822 60 187 6.0 12.0 0.00 0.00 0.00 72 1015.4
20210925072321 60 185 6.0 12.0 0.00 0.00 0.00 72 1015.6
20210925071820 60 183 6.0 12.0 0.00 0.00 0.00 72 1015.5
20210925071320 60 187 5.0 12.0 0.00 0.00 0.00 72 1015.8
20210925070819 61 196 5.0 12.0 0.00 0.00 0.00 72 1015.8
20210925070318 60 182 7.0 12.0 0.00 0.00 0.00 72 1015.5
20210925065817 60 194 5.0 12.0 0.00 0.00 0.00 72 1015.7
20210925065317 60 191 5.0 12.0 0.00 0.00 0.00 72 1015.7
20210925064815 60 190 4.0 12.0 0.00 0.00 0.00 72 1015.9
20210925064316 61 194 4.0 12.0 0.00 0.00 0.00 72 1015.9
20210925063815 61 194 5.0 12.0 0.00 0.00 0.00 72 1015.7
20210925063314 61 188 6.0 12.0 0.00 0.00 0.00 72 1015.8
20210925062814 61 191 5.0 12.0 0.00 0.00 0.00 72 1015.9
20210925062312 61 201 5.0 12.0 0.00 0.00 0.00 72 1015.8
20210925061811 61 191 6.0 12.0 0.00 0.00 0.00 72 1015.8
20210925061311 61 191 5.0 12.0 0.00 0.00 0.00 72 1015.8
20210925060310 61 170 5.0 12.0 0.00 0.00 0.00 72 1015.8
20210925055808 60 187 3.0 12.0 0.00 0.00 0.00 72 1016.0
20210925055307 61 180 4.0 12.0 0.00 0.00 0.00 72 1016.1
20210925054806 61 181 4.0 12.0 0.00 0.00 0.00 72 1016.2
20210925054306 61 177 5.0 12.0 0.00 0.00 0.00 71 1016.2
20210925053805 61 183 3.0 12.0 0.00 0.00 0.00 71 1016.4
20210925053304 61 191 4.0 12.0 0.00 0.00 0.00 71 1016.2
20210925052803 61 188 4.0 12.0 0.00 0.00 0.00 70 1016.3
20210925052305 61 195 4.0 12.0 0.00 0.00 0.00 70 1016.4
20210925051802 61 199 4.0 12.0 0.00 0.00 0.00 69 1016.3
20210925051300 62 189 5.0 12.0 0.00 0.00 0.00 69 1016.3
20210925050800 62 183 5.0 12.0 0.00 0.00 0.00 69 1016.3
20210925050300 62 193 3.0 12.0 0.00 0.00 0.00 68 1016.1
20210925045758 62 189 5.0 12.0 0.00 0.00 0.00 68 1016.2
20210925045257 62 193 3.0 12.0 0.00 0.00 0.00 68 1016.2
20210925044757 62 195 5.0 12.0 0.00 0.00 0.00 68 1016.2
20210925044255 62 188 4.0 12.0 0.00 0.00 0.00 68 1016.4
20210925043755 62 193 4.0 12.0 0.00 0.00 0.00 68 1016.8
20210925043255 62 182 4.0 12.0 0.00 0.00 0.00 68 1016.3
20210925042753 62 190 5.0 12.0 0.00 0.00 0.00 67 1016.4
20210925042252 62 185 5.0 12.0 0.00 0.00 0.00 67 1016.6